[[{"header":{"parameterUnit":"m.s-1","parameterCategory":1,"la1":30.2991,"la2":30.254,"lo1":-89.0895,"lo2":-89.0444,"dy":0.0017,"dx":0.0017,"nx":28,"ny":28,"refTime":"2023-07-19T09:00:00:Z","depth":0,"parameterNumber":2,"parameterNumberName":"U-component_of_WINDS"},"data":[0,0,0,0,0,0,0,0,0,0,0,0,0,0,0,0,0,0,0,0,0,0,0,0,0,0,0,0,0,0,0,0,0,0,0,0,0,0,0,0,0,0,0,0,0,0,0,0,0,0,0,0,0,0,0,0,0,0,0.1138,0.1139,0,0.1185,0.1186,0.1186,0.1213,0.1213,0.1213,0.1213,0.1265,0.1266,0.1267,0,0,0,0,0,0,0,0,0,0,0,0,0,0.1074,0.1075,0.1138,0.1139,0.1139,0.1185,0.1186,0.1186,0.1213,0.1213,0.1213,0.1213,0.1264,0.1266,0.1267,0,0,0,0,0,0,0,0,0,0,0,0,0,0.1109,0.1075,0.1138,0.1158,0.116,0.1185,0.1186,0.1187,0.1213,0.1213,0.1213,0.1213,0.1264,0.1265,0.1267,0.1277,0,0,0.1273,0.1274,0,0,0,0,0,0,0,0,0.1107,0.1112,0.1154,0.1157,0.1159,0.1193,0.1182,0.1217,0.1213,0.1193,0.1213,0.1214,0.1241,0.1245,0.1253,0.1279,0.1281,0.1273,0.1275,0.1275,0.1276,0,0,0,0,0,0,0,0.1105,0.111,0.1157,0.1155,0.1158,0.1166,0.1171,0.1189,0.1216,0.1195,0.1197,0.1202,0.1242,0.1251,0.1255,0.1282,0.1273,0.1275,0.1276,0.1277,0.1318,0.1318,0,0,0,0,0,0,0.1099,0.1108,0.1155,0.1158,0.1133,0.1167,0.1172,0.1182,0.1216,0.1221,0.1202,0.1203,0.1248,0.1252,0.1257,0.127,0.1275,0.1277,0.1278,0.1318,0.1318,0.1318,0,0,0,0,0,0,0.1097,0.1103,0.1153,0.1133,0.114,0.1167,0.1178,0.1183,0.1192,0.1221,0.1226,0.1206,0.1248,0.1254,0.1271,0.1272,0.1278,0.128,0.1318,0.1318,0.1318,0.1296,0,0,0,0,0,0,0.1095,0.1102,0.1105,0.1133,0.1141,0.1166,0.1178,0.1184,0.1195,0.1197,0.1226,0.1231,0.1249,0.1268,0.1273,0.1275,0.1281,0.1318,0.1318,0.1318,0.1297,0.1296,0.1294,0,0,0,0,0,0.1093,0.1098,0.1105,0.1111,0.1146,0.1166,0.1171,0.1191,0.1195,0.1199,0.1217,0.123,0.1271,0.127,0.1276,0.1278,0.1318,0.1318,0.1318,0.1298,0.1296,0.1294,0,0,0,0,0,0,0.107,0.1102,0.111,0.1124,0.1142,0.1171,0.1176,0.1188,0.1206,0.1207,0.1231,0.1238,0.1253,0.1267,0.1265,0.1289,0.1296,0.1297,0.1279,0.1277,0.1276,0.1272,0.1283,0,0,0,0,0,0.1067,0.108,0.1107,0.1117,0.1125,0.1149,0.1159,0.1172,0.1192,0.12,0.122,0.1239,0.1257,0.1268,0.1285,0.1299,0.1306,0.1304,0.1302,0.1301,0.1302,0.1311,0.131,0.1317,0.1317,0.1317,0,0,0.106,0.1079,0.1086,0.1113,0.1128,0.1142,0.1155,0.117,0.118,0.1203,0.122,0.1235,0.1259,0.1274,0.1282,0.1287,0.1301,0.1301,0.1299,0.1301,0.131,0.131,0.1309,0.1317,0.1317,0.1317,0,0,0.1054,0.107,0.108,0.1095,0.1117,0.1133,0.1135,0.1162,0.1173,0.119,0.1207,0.1221,0.125,0.1266,0.1278,0.1279,0.1292,0.1284,0.1277,0.1285,0.1284,0.1284,0.1285,0.1285,0.1284,0.1284,0.1284,0,0.1043,0.1064,0.1083,0.1096,0.1108,0.1128,0.1139,0.1152,0.118,0.1188,0.1193,0.123,0.1247,0.1267,0.1267,0.1276,0.128,0.1281,0.1283,0.1282,0.1282,0.1283,0.1284,0.1283,0.1284,0.1284,0.1284,0,0.105,0.1064,0.1069,0.1094,0.1107,0.1118,0.114,0.1151,0.1163,0.1178,0.1196,0.1218,0.124,0.1246,0.1258,0.1267,0.1269,0.1278,0.1286,0.128,0.1282,0.1282,0.1282,0.1282,0.1283,0.1283,0,0,0.1032,0.1067,0.1069,0.1081,0.1107,0.1119,0.1132,0.1153,0.1161,0.118,0.1192,0.1216,0.1224,0.1237,0.1252,0.1259,0.1259,0.1267,0.1268,0.1265,0.1271,0.1265,0.1265,0.1267,0.1267,0.1267,0.1269,0,0.1031,0.1054,0.1072,0.1089,0.1102,0.1121,0.1133,0.1151,0.1165,0.118,0.1197,0.1213,0.1222,0.123,0.1238,0.1257,0.126,0.1257,0.1279,0.128,0.1273,0.1265,0.1259,0.126,0.127,0.127,0.127,0,0.1033,0.105,0.1068,0.1093,0.1099,0.1109,0.113,0.1143,0.1164,0.1174,0.1189,0.1204,0.1219,0.1225,0.1247,0.1244,0.1254,0.1265,0.1265,0.1269,0.1275,0.1269,0.1261,0.1261,0.1271,0.1271,0.1271,0,0.1019,0.1046,0.106,0.107,0.1099,0.1106,0.1119,0.114,0.1151,0.1169,0.1177,0.1197,0.1208,0.1224,0.1244,0.1246,0.1264,0.1271,0.1274,0.1273,0.1277,0.1277,0.1271,0.1282,0.1282,0.1282,0.1282,0,0.1016,0.1027,0.1054,0.1063,0.1076,0.1096,0.1108,0.1123,0.1141,0.1154,0.1171,0.1183,0.1208,0.1224,0.1239,0.1255,0.126,0.127,0.1274,0.1268,0.1267,0.1276,0.1277,0.1282,0.1282,0.1282,0.1282,0,0.1003,0.1022,0.1039,0.1065,0.1072,0.108,0.1103,0.1113,0.1128,0.1144,0.1149,0.1173,0.1192,0.1213,0.1239,0.125,0.1265,0.127,0.1257,0.126,0.1261,0.1261,0.1261,0.1262,0.1272,0.1272,0.1272,0,0.1,0.1009,0.1035,0.1045,0.1057,0.1071,0.1083,0.1103,0.1115,0.1139,0.1146,0.1166,0.1183,0.1212,0.1232,0.1252,0.1259,0.1258,0.1262,0.1257,0.126,0.1259,0.126,0.1257,0.1256,0.1256,0.1256,0,0.0994,0.1003,0.1018,0.1037,0.1049,0.1065,0.1082,0.1089,0.1113,0.1125,0.1144,0.1156,0.1182,0.1202,0.1224,0.1239,0.1252,0.1254,0.1256,0.1251,0.1243,0.1248,0.1254,0.1254,0.1255,0.1255,0.1255,0.1255,0.0986,0.0995,0.1015,0.1031,0.1046,0.1061,0.1071,0.1088,0.1103,0.1125,0.1137,0.1155,0.1176,0.1207,0.1221,0.1237,0.1241,0.1243,0.1244,0.1244,0.1243,0.124,0.1241,0.1241,0.1241,0.1241,0.1241,0,0.0981,0.0995,0.101,0.1032,0.1045,0.1055,0.1074,0.1085,0.11,0.1119,0.1134,0.1156,0.1175,0.1197,0.1217,0.1226,0.1232,0.123,0.123,0.1233,0.1238,0.1234,0.1225,0.1225,0.1225,0.1225,0.1225,0.1225,0.098,0.0995,0.1006,0.1028,0.1042,0.106,0.107,0.1084,0.1099,0.1121,0.1137,0.1151,0.1171,0.1193,0.1211,0.1217,0.1224,0.122,0.1228,0.1232,0.1233,0.1234,0.1232,0.1221,0.1221,0.1223,0.1223,0.1223]},{"header":{"parameterUnit":"m.s-1","parameterCategory":1,"la1":30.2991,"la2":30.254,"lo1":-89.0895,"lo2":-89.0444,"dy":0.0017,"dx":0.0017,"nx":28,"ny":28,"refTime":"2023-07-19T09:00:00:Z","depth":0,"parameterNumber":3,"parameterNumberName":"V-component_of_WINDS"},"data":[0,0,0,0,0,0,0,0,0,0,0,0,0,0,0,0,0,0,0,0,0,0,0,0,0,0,0,0,0,0,0,0,0,0,0,0,0,0,0,0,0,0,0,0,0,0,0,0,0,0,0,0,0,0,0,0,0,0,2.4708,2.4709,0,2.4766,2.4767,2.4767,2.4802,2.4802,2.4802,2.4802,2.4859,2.486,2.4861,0,0,0,0,0,0,0,0,0,0,0,0,0,2.4624,2.4626,2.4708,2.4709,2.471,2.4766,2.4767,2.4767,2.4802,2.4802,2.4802,2.4802,2.4858,2.486,2.4861,0,0,0,0,0,0,0,0,0,0,0,0,0,2.4669,2.4626,2.4708,2.4734,2.4737,2.4766,2.4767,2.4768,2.4802,2.4802,2.4802,2.4802,2.4858,2.486,2.4862,2.4869,0,0,2.4868,2.4869,0,0,0,0,0,0,0,0,2.4667,2.4672,2.4729,2.4732,2.4735,2.4777,2.4758,2.4802,2.4801,2.4777,2.4802,2.4802,2.4831,2.4835,2.4845,2.4872,2.4874,2.4868,2.4869,2.487,2.4871,0,0,0,0,0,0,0,2.4663,2.467,2.4731,2.473,2.4734,2.4741,2.4748,2.4766,2.4802,2.4779,2.4782,2.4788,2.4833,2.4843,2.4847,2.4875,2.4868,2.487,2.4871,2.4872,2.4907,2.4907,0,0,0,0,0,0,2.4657,2.4667,2.4729,2.4733,2.4701,2.4742,2.475,2.4763,2.4802,2.4808,2.4788,2.4789,2.484,2.4845,2.4849,2.4859,2.487,2.4872,2.4873,2.4907,2.4907,2.4907,0,0,0,0,0,0,2.4655,2.4662,2.4727,2.4701,2.471,2.4743,2.4758,2.4764,2.4775,2.4808,2.4815,2.4792,2.484,2.4846,2.4863,2.4861,2.4873,2.4875,2.4908,2.4907,2.4907,2.4879,0,0,0,0,0,0,2.4652,2.4661,2.4666,2.4701,2.4711,2.4741,2.4758,2.4765,2.4779,2.4781,2.4814,2.482,2.4841,2.486,2.4865,2.4864,2.4876,2.4908,2.4908,2.4907,2.488,2.4877,2.4875,0,0,0,0,0,2.4649,2.4656,2.4666,2.4673,2.4717,2.4741,2.4747,2.4772,2.4778,2.4782,2.4803,2.4819,2.4861,2.4862,2.4868,2.4867,2.4908,2.4908,2.4907,2.4881,2.4878,2.4875,0,0,0,0,0,0,2.462,2.4661,2.4672,2.4691,2.4712,2.4747,2.4753,2.4768,2.4788,2.4789,2.4818,2.4825,2.4839,2.4855,2.4855,2.4875,2.4886,2.4887,2.4864,2.4861,2.4859,2.4855,2.4878,0,0,0,0,0,2.4615,2.4632,2.4667,2.4679,2.469,2.4719,2.4731,2.4747,2.4771,2.478,2.4802,2.4823,2.4841,2.4852,2.4871,2.4882,2.4889,2.4885,2.4882,2.488,2.488,2.4885,2.4883,2.4905,2.4905,2.4905,0,0,2.4606,2.4631,2.464,2.4674,2.4693,2.4708,2.4727,2.4743,2.4754,2.4782,2.48,2.4816,2.4842,2.4855,2.4863,2.4869,2.4875,2.4879,2.4877,2.4879,2.4884,2.4882,2.488,2.4904,2.4904,2.4905,0,0,2.4598,2.4619,2.4631,2.4648,2.4676,2.4695,2.4698,2.473,2.4742,2.476,2.478,2.4793,2.4824,2.484,2.4853,2.4847,2.4861,2.4852,2.4839,2.4844,2.4842,2.484,2.4836,2.4835,2.4852,2.4852,2.4852,0,2.4583,2.4609,2.4635,2.4649,2.4662,2.4688,2.4698,2.4714,2.4746,2.4754,2.4761,2.4798,2.4817,2.4834,2.4832,2.4842,2.4844,2.4848,2.484,2.4839,2.4838,2.4834,2.4833,2.485,2.485,2.4851,2.4851,0,2.4588,2.4605,2.4611,2.4641,2.4655,2.4667,2.4693,2.4704,2.4718,2.4736,2.4752,2.4775,2.4798,2.4803,2.4818,2.4821,2.4824,2.4835,2.4847,2.4834,2.4831,2.483,2.4848,2.4849,2.4849,2.485,0,0,2.4565,2.4607,2.4609,2.4621,2.4652,2.4665,2.4677,2.4699,2.4706,2.4727,2.4737,2.476,2.477,2.4784,2.48,2.4804,2.4795,2.4815,2.4816,2.4809,2.4798,2.4788,2.4787,2.4805,2.4805,2.4805,2.4795,0,2.4561,2.4585,2.4607,2.4623,2.4637,2.4659,2.467,2.4689,2.4705,2.4718,2.4736,2.4751,2.4764,2.4772,2.4777,2.4796,2.4793,2.4797,2.4813,2.4813,2.4805,2.4786,2.4776,2.4766,2.4794,2.4794,2.4794,0,2.456,2.4578,2.4595,2.4621,2.4628,2.4637,2.4657,2.467,2.4691,2.4702,2.4716,2.4733,2.4745,2.4755,2.4771,2.4772,2.478,2.479,2.479,2.4792,2.4802,2.4786,2.4764,2.4761,2.4793,2.4793,2.4793,0,2.4539,2.4568,2.4581,2.4591,2.4623,2.4628,2.4642,2.4663,2.4674,2.4691,2.4697,2.4715,2.4725,2.4738,2.4758,2.4764,2.4771,2.4783,2.4779,2.4778,2.4779,2.4779,2.4757,2.4786,2.4786,2.4786,2.4786,0,2.4531,2.454,2.4572,2.458,2.459,2.4613,2.4622,2.4637,2.4655,2.4665,2.4686,2.4694,2.4721,2.4733,2.4749,2.4758,2.4762,2.477,2.4774,2.4768,2.4767,2.4773,2.4774,2.4785,2.4786,2.4786,2.4786,0,2.4511,2.4532,2.4548,2.4576,2.4583,2.4588,2.4612,2.4619,2.4635,2.4647,2.4651,2.4677,2.4691,2.4712,2.4733,2.4743,2.4749,2.4757,2.4742,2.4744,2.4738,2.4738,2.4719,2.4717,2.4748,2.4748,2.4747,0,2.4504,2.4512,2.4539,2.4547,2.456,2.4573,2.4583,2.4606,2.4615,2.4638,2.4642,2.4657,2.4671,2.4692,2.4711,2.4726,2.4733,2.4726,2.4736,2.4728,2.4731,2.473,2.473,2.4723,2.4723,2.4722,2.4722,0,2.449,2.45,2.4514,2.4531,2.4542,2.4557,2.4572,2.4577,2.4603,2.4612,2.4627,2.4637,2.4657,2.4671,2.4688,2.4701,2.4715,2.4718,2.4718,2.4711,2.4702,2.4705,2.4734,2.4719,2.4719,2.4719,2.472,2.472,2.4476,2.4482,2.4501,2.4516,2.4529,2.4542,2.455,2.4566,2.4578,2.4596,2.4608,2.4621,2.4639,2.4663,2.4675,2.4684,2.469,2.469,2.469,2.4689,2.4686,2.4701,2.4687,2.4687,2.4688,2.4688,2.4688,0,2.4461,2.4474,2.4487,2.4507,2.4517,2.4529,2.4546,2.4553,2.4564,2.458,2.4592,2.4606,2.462,2.4639,2.4653,2.4657,2.4663,2.4659,2.4659,2.4661,2.468,2.4679,2.4654,2.4654,2.4654,2.4654,2.4654,2.4654,2.4455,2.4465,2.4476,2.4492,2.4505,2.4517,2.4525,2.4537,2.4549,2.4564,2.4575,2.4587,2.4603,2.4618,2.463,2.4635,2.4639,2.4632,2.4639,2.4657,2.466,2.4663,2.4661,2.4633,2.4633,2.4619,2.4619,2.4619]}]]